571  
ASUS41 KALY 210910  
RWRALY  
 
NEW YORK STATE HOURLY WEATHER ROUNDUP  
NATIONAL WEATHER SERVICE ALBANY NY  
400 AM EST TUE FEB 21 2017  
 
NOTE: "FAIR" INDICATES FEW OR NO CLOUDS BELOW 12,000 FEET WITH NO  
SIGNIFICANT WEATHER AND/OR NO S TO VISIBILITY
.  
 
NYZ032-033-038>043-046>054-057>066-NYZ062>081-082-084-211000-  
EAST  
 
 
CITY SKY/WX TMP DP RH WIND PRES REMARKS
 
ALBANY CLOUDY 21 13 71 CALM 30.38F  
GLENS FALLS CLOUDY 15 10 80 CALM 30.38F  
POUGHKEEPSIE CLOUDY 22 17 81 CALM 30.37S  
NEWBURGH CLEAR 27 16 63 CALM 30.36F  
MONTGOMERY CLOUDY 23 17 78 CALM 30.36R  
WHITE PLAINS CLEAR 26 14 60 CALM 30.33S  
ISLIP PTCLDY 28 18 66 CALM 30.36S  
NEW YORK CITY PTCLDY 37 15 40 NE7 30.36S WCI 32  
CENTRAL PARK CLEAR 37 8 30 NE10 30.38S WCI 30  

 
 
NYZ005>009-017-018-044>046-055-056-211000-  
CENTRAL  
 
 
CITY SKY/WX TMP DP RH WIND PRES REMARKS
 
FULTON CLOUDY 27 17 66 VRB5 30.27F WCI 22  
SYRACUSE CLOUDY 24 17 74 E8 30.29S WCI 15  
ROME CLOUDY 20 15 81 SE6 30.34F WCI 12  
ELMIRA CLOUDY 27 18 69 N5 30.26F WCI 22  
BINGHAMTON CLOUDY 24 14 65 SE7 30.25S WCI 16  
MONTICELLO CLOUDY 21 16 79 CALM 30.31R  

 
 
NYZ026>034-041>043-087-211000-  
NORTH  
 
 
CITY SKY/WX TMP DP RH WIND PRES REMARKS
 
WATERTOWN CLOUDY 19 17 92 CALM 30.29F  
FORT DRUM NOT AVBL  
OGDENSBURG FAIR 16 14 91 CALM 30.32S  
MASSENA CLOUDY 15 12 88 NE3 30.34F  
SARANAC LAKE CLOUDY 8 5 87 CALM 30.25F  
PLATTSBURGH CLOUDY 18 14 84 CALM 30.36F  

 
 
NYZ001>004-010>016-019>021-085-211000-  
WEST  
 
 
CITY SKY/WX TMP DP RH WIND PRES REMARKS
 
NIAGARA FALLS CLOUDY 32 20 61 E7 30.13F WCI 26  
BUFFALO CLOUDY 33 21 61 CALM 30.14F  
DUNKIRK PTCLDY 36 26 67 NW8 30.11F WCI 30  
JAMESTOWN CLOUDY 37 19 48 S8 30.13R WCI 31  
WELLSVILLE CLOUDY 32 17 54 SE7 30.17F WCI 26  
ROCHESTER CLOUDY 31 18 58 SE8 30.19F WCI 23  
PENN YAN CLOUDY 26 18 71 S5 30.22F WCI 20  

 
 
KEY  
WCI = WIND CHILL INDEX  
VSB = VISIBILITY  
HX = HEAT INDEX  

 
 
 
CLICK HERE TO GO TO PREVIOUS BULLETINS.

The Nexlab NY Page
The Nexlab VT Page
The Nexlab MA Page
The Nexlab CT Page Main Text Page